Погода Абрамовский Маяк

Погода Абрамовский Маяк : погода сейчас, прогноз погоды и архив. Всё, что Вы хотите узнать о погоде Абрамовский Маяк!

Поиск расширенной информации на нашем сайте:

Другие новости

Новости СМИ2

Главная страница сайта

Новости сайта

03.07.2017

Напоминаем, что на нашем специализированном сайте Метеоцентр.Азия вы можете получить высокодетализированные автоматические прогнозы погоды по пунктам России, СНГ и мира в авиационном формате (включающие направление и скорость ветра, видимость, явления погоды, количество и форму облачности, нижнюю и верхнюю границу облачности).

Рекомендуем: Подробности абузоустойчивый хостинг на сайте.

Погода Абрамовский Маяк - сегодня

Время (UTC), дата Ветер
(°,м/с) 
Видим.   Явления Облачность Т
(°С)
Тd
(°С)
f(%) Тe
(°С)
Pmin
(гПа)
dP
(гПа)
Po
(мм)
O2
(г/м3)
Тmin Tmax R s Состояние
почвы
12 14.10.17 100 (В) 20000 м    10/10 300 м 
[Sc]
+3.2 +1.9 91 +1  1015  -0.3  759  302           
15 14.10.17 090 (В) 20000 м    10/10 300 м 
[Sc]
+3.4 +2.3 92 +1  1014.4  -0.6  759  302    +3.7       
18 14.10.17 110 (В) 20000 м    10/10 300 м 
[Sc]
+3.1 +2.2 94 +1  1013.5  -0.9  758  302           
21 14.10.17 100 (В) 20000 м    10/10 300 м 
[Sc]
+2.8 +1.8 93 1011.9  -1.6  757  302           
00 15.10.17 100 (В) 20000 м    10/10 300 м 
[Sc]
+3.2 +2.3 94 1010.4  -1.5  756  301           
03 15.10.17 110 (В) 6{10}  20000 м    10/10 300 м 
[Sc]
+3 +2.1 94 1009.3  -1.1  755  301  +2.8         
06 15.10.17 120 (ЮВ) 7{10}  20000 м    10/4 600 м средняя 
[Sc|Ac lent]
+3.1 +1.9 92 1008.8  -0.5  755  300           
09 15.10.17 120 (ЮВ) 7{10}  20000 м    10/10 600 м 
[Sc]
+3.1 +1.6 90 1009  0.2  755  300           
12 15.10.17 110 (В) 6{10}  4000 м  слаб. ливневой дождь  10/10 300 м кучево-дожд. 
[Cb cap]
+3.3 +2.1 92 1009.3  0.3  755  300           
15 15.10.17 090 (В) 7{10}  4000 м  слаб. дождь{ливн. осадки}  10/10 300 м 
[Ns]
+3.2 +2 92 1009.8  0.6  755  301    +3.6     
21 15.10.17 100 (В) 4000 м  дымка{дождь}  10/10 300 м 
[St]
+3.8 +3 94 +1  1010  755  300           
00 16.10.17 110 (В) 20000 м  {дождь}  10/10 300 м 
[St]
+3.2 +2.2 93 +1  1010.1  0.1  756  301           
03 16.10.17 130 (ЮВ) 20000 м    10/10 300 м 
[St]
+2.8 +1.9 94 +1  1009.9  -0.2  755  301  +2.8       
06 16.10.17 170 (Ю) 4000 м  дымка  10/10 300 м 
[St]
+2.7 +2.2 96 +3  1009.4  -0.5  755  301  +2.3         
09 16.10.17 160 (Ю) 4000 м  слаб. дождь  10/10 300 м 
[Ns]
-1  1008.3  -1  754  304           
12 16.10.17 180 (Ю) 4000 м  слаб. дождь  10/10 300 м 
[Ns]
+3.6 +3.3 98 +3  1006.6  -1.8  753  299           
15 16.10.17 190 (Ю) 4000 м  слаб. дождь  10/10 300 м 
[Ns]
+3.5 +3.4 99 +2  1004.3  -2.3  751  298    +3.7     
18 16.10.17 180 (Ю) 4000 м  слаб. морось{дождь}  10/10 300 м 
[St]
+4 +3.8 99 +2  1000.7  -3.6  749  297           
21 16.10.17 170 (Ю) 4000 м  слаб. морось  10/10 300 м 
[St]
+4.4 +4.1 98 +2  996.6  -4  746  295           
00 17.10.17 150 (ЮВ) 7-10{12}  4000 м  слаб. ливневой дождь{морось}  10/10 300 м кучево-дожд. 
[Cb cap]
+5.4   991.9  -4.7  742             
03 17.10.17 160 (Ю) 8-11{13}  4000 м  слаб. ливневой дождь  10/10 300 м кучево-дожд. 
[Cb cap]
+4 +3.1 94 +1  988.5  -3.4  739  293  +3.5       
06 17.10.17 150 (ЮВ) 5{13}  20000 м  {ливн. осадки}  10/10 600 м 
[Sc]
+3.3 +2.5 94 +1  986.9  -1.6  738  293  +3.3         
09 17.10.17 160 (Ю) 4000 м  слаб. морось  10/10 300 м 
[St]
+3.5 +2.9 96 +1  986.9  738  293           
12 17.10.17 140 (ЮВ) 20000 м  {морось}  10/10 300 м 
[St]
+4.1 +3.5 96 +3  987.5  0.6  739  293           
15 17.10.17 120 (ЮВ) 4000 м  дымка  10/10 200 м 
[St]
+3.8 +3.7 99 +3  988.3  0.8  739  293    +4.3  0.9     
Время (UTC), дата Ветер
(°,м/с) 
Видим.   Явления Облачность Т
(°С)
Тd
(°С)
f(%) Тe
(°С)
Pmin
(гПа)
dP
(гПа)
Po
(мм)
O2
(г/м3)
Тmin Tmax R s Состояние
почвы

Для получения пояснительной информации подведите курсор к названию столбца.

ПОГОДА Абрамовский Маяк - архив

Всё, что Вы хотите узнать о погоде Абрамовский Маяк - удобно и подробно!

Выберите нужную дату (начиная с 1 января 2015* года) и нажмите кнопку "Найти".
Будут отображены архивные сводки погоды по пункту Абрамовский Маяк, начиная с указанной даты.


Отображать данные в формате CSV (для использования в таблицах Excel)


Внимание! Наш архив погоды предназначен исключительно для личного некоммерческого использования в познавательных целях. Если Вам необходимы официальные справки о состоянии погоды (для производственных, юридических, коммерческих и т.п. целей), обращайтесь в органы Росгидромета.

*Примечание: данная дата относится к архиву по метеостанциям СССР (Россия, СНГ, Балтия).
Архив по метеостанциям Зарубежной Европы и Азии (кроме Китая) хранится 10 дней, по другим регионам земного шара (Китай, Африка, Америка, Австралия, Океания) - 1 день.

Абрамовский Маяк - район местоположения метеостанции


Название, широта, долгота, высота метеостанции:
Абрамовский Маяк 66.4°ш. 43.2°д. 21 м над ур. моря [Российская Федерация]

Дополнительная информация

В oтличие oт бoльшинства пoгoдных сайтoв мы публикуем пoдрoбную метеoинфoрмацию в детальнoм прoфессиoнальнoм фoрмате.

Характеристики температуры и влажнoсти вoздуха измеряются на высoте 2 м в тени вдали oт зданий и деревьев.
Скoрoсть ветра измеряется на высoте 10 м (на урoвне рoста челoвека скoрoсть ветра ниже в 1.5-2 раза). Если метеoстанция нахoдится в гoрoде или в лесу, тo скoрoсть ветра занижена на 2-4 м/с пo сравнению с oткрытым местoм. Скoрoсть ветра над акватoриями крупных рек и oзёр, а также на вершинах хoлмoв на 2-5 м/с выше, чем в oбычных услoвиях.
Атмoсфернoе давление в разных тoчках местнoсти мoжет значительнo oтличаться oт давления на метеoстанции, в зависимoсти oт услoвий рельефа (при пoдъёме на 10 м давление пoнижается примернo на 1 мм рт.ст.).